Regional Weather Roundup
Issued by NWS

Home | Current Version | Previous Version | Text Only | Print | Product List | Glossary Off
Versions: 1 2 3 4 5 6 7 8 9 10 11 12 13 14 15 16 17 18 19 20 21 22 23 24 25 26 27 28 29 30 31 32 33 34 35 36 37 38 39 40 41 42 43 44 45 46 47 48 49 50

184
ASUS43 KMPX 260401
RWRMN
WEATHER ROUNDUP FOR MINNESOTA
NATIONAL WEATHER SERVICE TWIN CITIES/CHANHASSEN MN
1100 PM CDT SUN SEP 25 2016


NOTE: "FAIR" INDICATES FEW OR NO CLOUDS BELOW 12,000 FEET WITH NO
SIGNIFICANT WEATHER AND/OR OBSTRUCTIONS TO VISIBILITY. N/A MEANS
CURRENT SKY AND/OR WEATHER CONDITIONS ARE NOT AVAILABLE.

MNZ060>063-068>070-260500-
   Twin Cities Metro

CITY           SKY/WX    TMP DP  RH WIND       PRES   REMARKS
TWIN CITIES    CLEAR     56  46  69 W10       29.99R
ST PAUL        CLEAR     57  44  62 W14G20    29.99R
CRYSTAL        CLEAR     55  43  63 W8G20     29.98S
BLAINE         CLEAR     55  46  71 W12       29.97F
LAKEVILLE      CLEAR     54  46  76 W6        30.00S
EDEN PRAIRIE   CLEAR     54  47  77 W7        29.99R
LAKEVILLE      CLEAR     54  46  76 W6        30.00S
SOUTH ST PAUL  CLEAR     57  46  66 W9        29.99R
LAKE ELMO      FAIR      54  46  76 W12       29.99S
$$
MNZ001>005-007-008-013>017-022>024-027-028-260500-
   Northwest Minnesota

CITY           SKY/WX    TMP DP  RH WIND       PRES   REMARKS
BEMIDJI        RAIN      49  47  93 W21G31    29.85S
HALLOCK        CLOUDY    54  48  82 W10       29.89F
ROSEAU         DRIZZLE   52  46  82 NW20      29.81F
WARROAD        LGT RAIN  50  46  87 W17G25    29.79R
THIEF RVR FALL LGT RAIN  51  46  83 NW26G35   29.91
CROOKSTON      CLOUDY    50  48  93 NW12      29.93F
FOSSTON        DRIZZLE   48  46  93 NW20G26   29.93R
DETROIT LAKES  RAIN      50  46  87 NW9G16    29.98S
MOORHEAD       CLOUDY    57  43  58 NW10G22   29.99S
PARK RAPIDS    RAIN      50  45  83 NW18G31   29.91F
MAHNOMEN       RAIN      49  47  91 NW14G22   29.95S
$$
MNZ006-009>011-018-025>026-260500-
   North Central Minnesota

CITY           SKY/WX    TMP DP  RH WIND       PRES   REMARKS
BAUDETTE       RAIN      51  49  92 W23G31    29.74R
FLAG ISLAND    HVY RAIN  52  50  93 NW23G29   29.72R
INTL FALLS     LGT RAIN  52  51  97 W10G18    29.67F FOG
WASKISH        DRIZZLE   52  50  93 W22G33    29.78R
BIG FORK       RAIN      52  48  87 W8        29.76S
GRAND RAPIDS   LGT RAIN  50  48  93 W15G21    29.82S FOG
COOK           DRIZZLE   52  50  93 SW8       29.73F
WALKER         RAIN      47  45  91 W15G26    29.86S
$$
MNZ012-019>021-037-260500-
   Northeast Minnesota

CITY           SKY/WX    TMP DP  RH WIND       PRES   REMARKS
DULUTH         MOCLDY    51  50  96 W16       29.79F
ELY            CLOUDY    52  48  87 SW12      29.71F
HIBBING        LGT RAIN  49  48  97 W8        29.76F FOG
EVELETH        LGT RAIN  53  50  90 SW12G17   29.76F
DULUTH HARBOR  CLOUDY    55  52  88 SW15G22   29.81F
TWO HARBORS    CLOUDY    57  52  82 W14G22    29.75F
SILVER BAY     CLOUDY    55  50  82 SW5       29.73S
GRAND MARAIS     N/A     58  57  97 W8        29.69F
G MARAIS ARPRT CLOUDY    52  48  87 SW6       29.71F
$$
MNZ029>031-032-039>041-046>048-054>057-064-260500-
   West Central Minnesota

CITY           SKY/WX    TMP DP  RH WIND       PRES   REMARKS
FERGUS FALLS   CLOUDY    52  45  76 NW7G22    30.03R
MORRIS         CLOUDY    54  39  58 NW7       30.02F
ALEXANDRIA     CLOUDY    53  44  71 NW18G28   30.02R
ELBOW LAKE     CLOUDY    51  46  84 SW7       30.02S
GLENWOOD       MOCLDY    54  45  71 W13       30.02S
BENSON         CLOUDY    52  39  62 N6        30.04S
MADISON          N/A     55  39  54 W12       30.07S
WILLMAR        FAIR      54  43  66 W9        30.05R
$$
MNZ033>034-036-042>043-049>051-058-059-260500-
   Central Minnesota

CITY           SKY/WX    TMP DP  RH WIND       PRES   REMARKS
ST CLOUD       PTCLDY    53  44  71 W13       29.97F
SAUK CENTRE    MOCLDY    52  44  73 W10       29.99F
PAYNESVILLE    MOCLDY    50  45  83 W7        30.01F
AITKIN         MIX PCPN  54  43  66 W10G20    29.86S
PINE RIVER     DRIZZLE   52  45  76 W13G20    29.93S
BRAINERD       CLOUDY    51  44  77 W16G28    29.91F
STAPLES        DRIZZLE   50  43  76 W16G28    29.95S
LONG PRAIRIE   DRIZZLE   52  43  71 SW13G20   29.98S
LITTLE FALLS   CLOUDY    54  41  62 W12G17    29.95F
BUFFALO        CLEAR     54  45  71 W9        30.00F
MAPLE LAKE     CLEAR     54  46  75 W8        30.00S
HUTCHINSON     CLOUDY    53  44  70 W10       30.03R
$$
MNZ037-044-045-052-053-260500-
   East Central Minnesota

CITY           SKY/WX    TMP DP  RH WIND       PRES   REMARKS
PRINCETON      PTCLDY    54  45  71 W10G18    29.95F
MORA           PTCLDY    50  41  71 W9        29.92F
CAMBRIDGE      PTCLDY    55  43  62 SW8       29.93S
MOOSE LAKE     CLOUDY    52  45  76 W6G16     29.84S
HINCKLEY       CLOUDY    54  45  71 W14       29.89F
CLOQUET        CLOUDY    52  46  82 W12G18    29.81F
MCGREGOR       CLOUDY    52  45  76 W12G18    29.86S
$$
MNZ071>073-080-081-089-090-097-098-260500-
   Southwest Minnesota

CITY           SKY/WX    TMP DP  RH WIND       PRES   REMARKS
MONTEVIDEO     MOCLDY    54  39  58 NW10G17   30.07S
GRANITE FALLS  PTCLDY    54  41  62 W13       30.08S
CANBY          CLEAR     55  39  54 NW14      30.11R
MARSHALL       CLEAR     54  39  57 W16       30.09F
REDWOOD FALLS  CLEAR     54  39  57 W14       30.05F
OLIVIA         PTCLDY    54  41  62 W12       30.03F
PIPESTONE      CLEAR     52  37  58 W7        30.14S
WINDOM         CLEAR     52  41  66 W8        30.10F
WORTHINGTON    CLEAR     48  42  80 W9        30.14S
JACKSON        PTCLDY    54  37  54 W9        30.12S
TRACY          CLEAR     54  41  61 W7        30.10F
$$
MNZ065>067-074>077-082>085-091>093-260500-
   South Central Minnesota

CITY           SKY/WX    TMP DP  RH WIND       PRES   REMARKS
MANKATO        CLEAR     54  43  66 W10       30.05S
ST JAMES       CLEAR     55  41  58 W9        30.09S
FAIRMONT       PTCLDY    56  42  59 W13       30.09F
GLENCOE        CLEAR     55  46  70 W8        30.01S
FARIBAULT      CLEAR     55  46  71 W10G17    30.02S
OWATONNA       CLEAR     54  45  71 W9        30.03S
WASECA         CLEAR     54  45  71 W7        30.06R
ALBERT LEA     CLEAR     55  45  67 W8        30.06S
$$
MNZ078>079-086>088-094>096-260500-
   Southeast Minnesota

CITY           SKY/WX    TMP DP  RH WIND       PRES   REMARKS
ROCHESTER      CLEAR     53  50  89 W9        30.02S
RED WING       MOCLDY    57  48  72 W6        29.97S
STANTON        PTCLDY    55  47  75 SW6       29.99S
DODGE CENTER   CLEAR     52  48  87 W8        30.03R
WINONA         CLEAR     59  48  67 W10G16    29.99S
AUSTIN         CLEAR     54  48  82 W12       30.04S
PRESTON        CLEAR     53  49  84 W9        30.03S
$$
ABBREVIATIONS USED IN REMARKS
   TC - TEMPERATURES IN CELSIUS
  WCI - WIND CHILL INDEX
   HX - HEAT INDEX
  VSB - VISIBILITY
$$




USA.gov is the U.S. government's official web portal to all federal, state and local government web resources and services.